sat.trackr.live / text

‹ back to catalog

STARLINK-35547

NORAD 66119 · 2025-237F

PAYLOAD ACTIVE UNKNOWN

§ Identity

Operator
Country
US
Launch date
2025-10-22
Launch site
AFWTR
Launch vehicle
Mass (kg)
RCS (m²)

Purposes: comms

External: N2YO · Heavens-Above · Gunter

§ Orbital elements

Epoch: 2026-09-19T10:30:18.441216Z

Period
93.85 min
Inclination
53.1579°
Eccentricity
0.0001335
Mean motion
15.34412307 rev/d
Perigee alt
461.8 km
Apogee alt
463.6 km
Semi-major
6,840.8 km
B*
8.6971e-4
RAAN
216.8892°
Arg perigee
87.1509°
Mean anomaly
272.9646°
Rev number
5,231

§ Raw data

STARLINK-355471 66119U 25237F   26262.43771344  .00029134  00000+0  86971-3 0  99952 66119  53.1579 216.8892 0001335  87.1509 272.9646 15.34412307 52310

JSON: /api/v1/satellites/66119 · /tle

For live sub-satellite position, see the globe view (requires WebGL).

§ Visibility from observer

Set your observer location to see the next 7 days of passes ≥ 10°. The values pass through the URL so the page stays shareable.

No JS? Fill the form by hand. The geolocation button needs JavaScript.